SCP
0 0 0 0 0 0 0 0 0 0 0 0 0 0 0 0 0 0 0 0 0 0 0 0 0 0 0 0 0 0 0 0 0 0 0 0 0 0 0 0 0 0 0
0 0 0 0 0 0 0 0 0 0 0 0 0 0 0 0 0 0 0 0 0 0 0 0 0 0 0 0 0 0 0 0 0 0 0 0 0 0 0 0 0 0 0
0 0 0 0 0 0 0 0 0 0 0 0 0 0 0 0 0 0 0 0 0 0 0 0 0 0 0 0 0 0 0 0 0 0 0 0 0 0 0 0 0 0 0
0 0 0 0 0 0 0 0 0 0 0 0 0 0 0 0 0 0 0 0 0 0 0 0 0 0 0 0 0 0 0 0 0 0 0 0 0 -0 0 0 -0 0 0
0 0 0 0 0 0 0 0 0 0 0 0 0 0 0 0 0 0 0 0 0 0 0 0 0 0 0 0 0 0 0 0 0 0 0 0 0 0 -0 -0 -0 -0 0
0 0 0 0 0 0 0 0 0 0 0 0 0 0 0 0 0 0 0 0 0 0 0 0 0 0 0 0 0 0 0 0 0 0 0 0 0 0 0 0 0 -0 0
0 0 0 0 0 0 0 0 0 0 0 0 0 0 0 0 0 0 0 0 0 0 0 0 0 0 0 0 0 0 0 0 0 0 0 0 0 0 0 0 0 0 0
0 0 0 0 0 0 0 0 0 0 0 0 0 0 0 0 0 0 0 0 0 0 0 0 0 0 0 0 0 0 0 0 0 0 0 0 0 0 0 0 0 0 0
0 0 0 0 0 0 0 0 0 0 0 0 0 0 0 0 0 0 0 0 0 0 0 0 0 0 0 0 0 0 0 0 0 0 0 0 0 0 0 0 0 0 0
0 0 0 0 0 0 0 0 0 0 0 0 0 0 0 0 0 0 0 0 0 0 0 0 0 0 0 0 0 0 0 0 0 0 0 0 0 0 0 0 0 0 0
0 0 0 0 0 0 0 0 0 0 0 0 0 0 0 0 0 0 0 0 0 0 0 0 0 0 0 0 0 0 0 0 0 0 0 0 0 0 0 0 0 0 0
0 0 0 0 0 0 0 0 0 0 0 0 0 0 0 0 0 0 0 0 0 0 0 0 0 0 0 0 0 0 0 0 0 0 0 0 0 0 0 0 0 0 0
0 0 0 0 0 0 0 0 0 0 0 0 0 0 0 0 0 0 0 0 0 0 0 0 0 0 0 0 0 0 0 0 0 0 0 0 0 0 0 0 0 0 0
0 0 0 0 0 0 0 0 0 0 0 0 0 0 0 0 0 0 0 0 0 0 0 0 0 0 0 0 0 0 0 0 0 0 0 0 0 0 0 0 0 0 0
0 0 0 0 0 0 0 0 0 0 0 0 0 0 0 0 0 0 0 0 0 0 0 0 0 0 0 0 0 0 0 0 0 0 0 0 0 0 0 0 0 0 0
0 0 0 0 0 0 0 0 0 0 0 0 0 0 0 0 0 0 0 0 0 0 0 0 0 0 0 0 0 0 0 0 0 0 0 0 0 0 0 0 0 0 0
0 0 0 0 0 0 0 0 0 0 0 0 0 0 0 0 0 0 0 0 0 0 0 0 0 0 0 0 0 0 0 0 0 0 0 0 0 0 0 0 0 0 0
0 0 0 0 0 0 0 0 0 0 0 0 0 0 0 0 0 0 0 0 0 0 0 0 0 0 0 0 0 0 0 0 0 0 0 0 0 0 0 0 0 0 0
0 0 0 0 0 0 0 0 0 0 0 0 0 0 0 0 0 0 0 0 0 0 0 0 0 0 0 0 0 0 0 0 0 0 0 0 0 0 0 0 0 0 0
0 0 0 0 0 0 0 0 0 0 0 0 0 0 0 0 0 0 0 0 0 0 0 0 0 0 0 0 0 0 0 0 0 0 0 0 0 0 0 0 0 0 0
0 0 0 0 0 0 0 0 0 0 0 0 0 0 0 0 0 0 0 0 0 0 0 0 0 0 0 0 0 0 0 0 0 0 0 0 0 0 0 0 0 0 0
0 0 0 0 0 0 0 0 0 0 0 0 0 0 0 0 0 0 0 0 0 0 0 0 0 0 0 0 0 0 0 0 0 0 0 0 0 0 0 0 0 0 0
0 0 0 0 0 0 0 0 0 0 0 0 0 0 0 0 0 0 0 0 0 0 0 0 0 0 0 0 0 0 0 0 0 0 0 0 0 0 0 0 0 0 0
0 0 0 0 0 0 0 0 0 0 0 0 0 0 0 0 0 0 0 0 0 0 0 0 0 0 0 0 0 0 0 0 0 0 0 0 0 0 0 0 0 0 0
0 0 0 0 0 0 0 0 0 0 0 0 0 0 0 0 0 0 0 0 0 0 0 0 0 0 0 0 0 0 0 0 0 0 0 0 0 0 0 0 0 0 0
0 0 0 0 0 0 0 0 0 0 0 0 0 0 0 0 0 0 0 0 0 0 0 0 0 0 0 0 0 0 0 0 0 0 0 0 0 0 0 0 0 0 0
Wind_Speed_500mb
15 15 17 18 14 12 13 15 18 20 19 18 20 21 25 31 39 37 32 25 21 23 20 23 25 19 16 18 22 26 28 36 39 42 42 42 44 44 41 42 42 44 44
18 18 24 22 21 16 15 14 17 18 22 24 23 27 33 43 37 31 26 24 25 24 17 18 15 11 9 19 25 28 34 40 39 34 35 45 51 45 40 41 45 51 51
26 25 24 21 17 14 12 15 18 22 24 26 29 34 34 28 32 36 35 32 32 29 14 17 16 15 17 15 15 19 17 17 25 27 26 32 43 51 57 60 63 64 61
32 24 21 18 14 10 13 18 23 24 29 34 35 31 31 23 23 27 30 28 24 15 13 13 13 19 19 21 16 15 17 20 24 20 21 35 44 56 64 71 75 76 70
24 23 17 11 9 9 16 23 27 33 36 33 32 29 22 21 28 30 30 26 17 9 14 16 15 20 23 28 26 18 21 24 28 22 27 39 49 56 62 60 52 46 54
22 18 16 10 9 16 24 31 37 39 38 37 31 25 23 28 29 28 27 18 14 11 13 16 22 26 25 25 26 20 23 27 31 25 29 31 34 36 47 47 42 45 48
20 19 13 12 18 25 36 45 47 43 40 37 32 27 29 17 14 21 20 26 26 26 25 29 30 28 28 29 26 25 24 28 28 33 34 34 36 37 38 41 45 48 50
23 17 15 18 24 33 42 51 49 44 42 36 31 29 2 17 35 17 24 28 32 29 33 39 38 37 33 29 29 27 28 29 31 34 35 38 39 40 46 49 50 53 54
24 20 22 24 28 38 48 50 45 40 36 34 27 20 9 9 16 32 21 30 20 31 32 36 40 40 38 33 36 38 40 46 42 38 40 44 46 48 51 54 55 54 57
25 26 27 30 36 43 46 43 41 37 33 27 26 24 21 23 20 18 24 30 37 27 32 33 31 35 34 40 42 49 55 46 38 38 41 42 45 49 52 55 61 59 58
31 33 31 32 37 43 43 38 34 29 25 24 25 28 30 35 34 31 34 23 27 34 36 30 29 34 36 41 48 53 60 56 40 45 45 41 47 53 58 62 67 69 65
38 35 31 29 38 37 49 35 30 28 28 30 36 30 27 27 27 29 35 36 38 41 38 35 32 41 46 46 49 55 51 54 52 50 53 59 61 64 71 71 69 71 68
38 27 27 29 39 47 33 30 29 29 30 32 29 26 25 27 30 32 38 40 43 38 36 34 39 44 46 51 54 47 51 55 61 69 76 76 79 83 73 63 58 56 58
32 28 35 48 28 28 29 29 28 26 26 28 30 31 35 32 33 35 38 41 39 44 47 39 42 46 49 59 66 64 68 71 73 75 76 73 64 53 54 53 53 53 55
30 38 35 26 22 26 30 27 23 20 24 29 34 39 40 34 32 38 39 41 46 42 50 49 47 54 59 67 68 64 63 63 64 63 60 53 46 49 50 50 50 50 52
44 33 28 21 22 24 30 30 27 23 27 33 39 36 37 32 29 34 37 38 42 46 53 57 57 59 66 62 59 58 57 55 53 49 50 52 46 46 49 50 50 52 52
24 18 21 19 21 28 33 32 27 26 32 35 39 36 32 29 33 39 40 39 43 44 50 59 65 64 61 61 60 55 53 52 50 51 52 49 49 48 49 49 53 52 54
28 22 18 20 25 31 36 29 26 28 34 37 35 37 36 34 36 36 39 42 45 42 49 62 62 62 61 59 58 56 51 46 45 49 54 59 60 58 52 47 51 53 56
31 25 18 16 23 35 33 31 30 31 35 39 35 37 37 36 43 41 43 45 47 50 50 53 60 62 63 59 60 57 52 53 53 56 48 39 41 48 52 53 54 53 53
32 26 17 14 32 30 35 32 34 36 38 41 36 39 40 42 41 43 46 47 49 48 47 51 58 60 60 59 58 59 67 65 64 42 31 39 45 45 47 50 50 49 52
32 21 11 27 32 37 36 37 40 37 39 42 38 40 43 42 43 46 47 48 47 46 47 51 54 58 58 57 57 61 59 55 46 37 45 43 45 45 42 35 42 45 45
27 11 21 43 41 44 40 38 38 38 38 42 39 43 42 45 44 46 47 47 43 43 47 49 54 55 55 53 55 52 52 48 56 45 58 57 48 44 37 37 35 39 39
22 18 49 35 45 47 41 40 40 37 40 41 42 43 45 44 45 46 48 43 41 42 45 51 52 48 50 46 51 52 41 46 50 55 51 56 44 44 42 35 32 38 36
30 48 32 39 45 48 46 42 40 38 41 42 44 45 46 44 42 45 42 40 40 43 44 46 42 40 39 45 43 43 43 50 57 56 44 56 52 54 47 31 21 17 16
57 32 38 46 51 49 45 38 33 35 39 42 43 45 46 44 39 42 41 40 42 41 43 36 33 34 34 34 40 45 46 49 59 58 46 45 61 62 55 33 16 22 25
27 39 47 46 49 48 41 37 33 37 41 43 45 47 45 41 40 40 40 39 42 38 34 31 30 30 30 34 41 37 38 43 48 57 43 58 61 57 44 37 18 33 31
Wind_Direction_500mb
178 186 191 205 215 237 241 252 270 288 301 306 308 297 297 301 304 292 293 301 305 301 296 304 313 311 298 293 302 307 313 314 317 323 316 313 312 305 305 307 309 305 299
208 213 222 227 241 251 263 272 278 288 300 311 310 310 308 307 303 294 290 298 306 313 302 290 275 277 312 308 315 318 316 317 321 326 315 316 314 311 307 310 314 312 301
225 232 243 238 237 244 265 277 294 304 306 305 308 307 309 309 295 294 297 300 298 297 277 259 259 277 293 318 344 344 345 3 336 328 330 318 318 319 316 310 309 309 306
233 230 217 213 220 252 286 305 300 305 309 317 323 328 332 322 306 307 317 321 325 277 233 227 250 273 279 294 311 310 312 326 328 328 319 315 318 318 316 314 311 307 302
203 203 203 221 245 299 309 301 311 318 323 325 328 334 334 311 308 306 310 313 322 264 209 229 251 278 300 314 313 308 309 310 315 297 291 306 308 311 313 313 316 322 310
198 205 219 239 300 310 316 318 322 322 322 326 329 329 323 313 298 295 302 308 305 291 275 274 273 286 292 291 296 313 310 305 305 300 314 316 316 312 308 307 318 319 319
212 221 243 288 318 325 325 320 317 316 317 321 323 320 325 290 275 295 293 304 308 304 300 301 300 300 299 302 303 301 311 309 299 297 298 304 311 309 311 310 311 311 311
221 236 269 296 313 315 314 313 312 315 316 317 320 325 304 271 270 259 291 300 301 298 309 309 310 310 307 304 310 311 307 306 299 292 291 298 303 304 306 306 306 305 306
230 249 266 281 298 307 312 313 313 314 314 315 316 315 308 261 269 280 256 287 265 286 291 297 302 306 309 312 313 311 308 306 299 291 291 293 296 299 301 301 301 302 303
243 262 274 288 301 308 310 308 310 310 308 310 313 309 300 287 294 287 283 269 281 281 292 293 289 297 303 310 313 318 317 309 285 288 292 293 294 297 299 300 299 300 298
249 254 268 290 305 314 308 304 304 306 307 308 307 300 294 296 295 283 289 288 267 294 299 299 294 298 300 302 303 310 314 310 294 283 278 289 293 295 297 297 296 296 294
247 258 273 297 312 312 303 305 310 310 308 307 309 305 302 300 297 289 288 291 290 293 292 291 296 302 296 303 309 314 307 301 294 289 288 290 293 295 295 294 294 293 292
245 257 287 300 290 294 295 300 304 303 307 314 316 315 312 305 299 297 288 288 289 287 287 292 297 299 299 310 312 304 295 290 287 288 291 292 291 292 293 293 293 291 290
243 264 287 305 292 294 302 303 304 301 306 311 312 316 315 305 298 299 292 290 286 291 294 298 302 303 307 307 305 302 296 292 291 290 290 293 295 296 294 291 290 286 284
246 286 296 294 293 311 314 308 308 299 311 320 310 312 311 301 293 302 297 287 290 295 297 304 307 307 305 306 308 307 305 302 300 299 298 297 294 289 291 288 284 284 282
271 275 285 281 301 313 321 309 301 305 314 321 319 305 307 304 286 293 295 294 293 295 300 307 308 310 311 312 313 312 309 307 305 302 299 301 298 285 282 282 281 281 281
250 260 269 287 311 324 329 314 308 305 319 323 321 313 314 310 302 298 296 296 296 297 295 299 305 310 312 314 315 314 311 308 306 303 304 300 296 295 290 283 280 283 288
252 250 274 301 320 319 318 312 310 310 307 315 318 315 306 302 301 286 288 292 297 291 296 302 308 313 314 316 317 317 316 311 312 308 306 302 295 289 286 282 278 280 286
247 246 266 290 312 303 308 303 307 315 302 304 311 304 292 295 300 300 300 299 297 301 303 305 309 313 315 319 321 322 321 316 315 318 316 312 312 303 282 271 273 279 286
239 242 255 285 301 297 296 297 298 304 302 293 298 301 291 299 303 303 301 301 303 303 304 305 308 311 316 321 322 324 322 322 320 325 327 326 328 321 310 279 274 281 284
231 234 258 306 290 288 288 291 291 293 289 284 286 297 292 294 300 304 303 304 302 301 304 308 309 312 316 321 323 323 322 325 327 331 337 331 331 326 324 299 275 280 283
195 212 292 296 283 289 286 285 281 284 281 277 282 299 291 291 297 301 301 303 298 300 305 307 311 312 316 321 321 321 322 325 326 330 329 330 335 323 325 318 300 285 279
216 267 295 280 282 291 287 287 287 282 274 270 287 292 289 287 296 300 300 297 294 297 302 306 309 313 314 321 318 317 323 320 313 319 325 322 340 334 331 326 315 292 276
316 287 281 282 290 288 288 286 285 282 264 275 284 288 283 288 296 301 294 289 290 295 300 303 305 313 314 323 321 314 308 303 303 310 326 316 334 336 336 329 327 345 285
283 272 282 291 290 290 289 284 279 272 274 280 281 285 283 288 295 301 290 288 290 298 302 301 305 313 314 316 324 308 304 307 309 314 323 324 324 327 330 327 279 331 313
269 286 290 290 293 293 287 277 275 273 275 280 285 283 282 282 290 297 289 285 290 303 301 302 302 306 311 320 326 318 306 302 306 312 317 322 321 323 314 320 271 309 312
Wind_Speed_850mb
15 15 17 18 14 12 13 15 18 20 19 18 20 21 25 31 39 37 32 25 21 23 20 23 25 19 16 18 22 26 28 36 39 42 42 42 44 44 41 42 42 44 44
18 18 24 22 21 16 15 14 17 18 22 24 23 27 33 43 37 31 26 24 25 24 17 18 15 11 9 19 25 28 34 40 39 34 35 45 51 45 40 41 45 51 51
26 25 24 21 17 14 12 15 18 22 24 26 29 34 34 28 32 36 35 32 32 29 14 17 16 15 17 15 15 19 17 17 25 27 26 32 43 51 57 60 63 64 61
32 24 21 18 14 10 13 18 23 24 29 34 35 31 31 23 23 27 30 28 24 15 13 13 13 19 19 21 16 15 17 20 24 20 21 35 44 56 64 71 75 76 70
24 23 17 11 9 9 16 23 27 33 36 33 32 29 22 21 28 30 30 26 17 9 14 16 15 20 23 28 26 18 21 24 28 22 27 39 49 56 62 60 52 46 54
22 18 16 10 9 16 24 31 37 39 38 37 31 25 23 28 29 28 27 18 14 11 13 16 22 26 25 25 26 20 23 27 31 25 29 31 34 36 47 47 42 45 48
20 19 13 12 18 25 36 45 47 43 40 37 32 27 29 17 14 21 20 26 26 26 25 29 30 28 28 29 26 25 24 28 28 33 34 34 36 37 38 41 45 48 50
23 17 15 18 24 33 42 51 49 44 42 36 31 29 2 17 35 17 24 28 32 29 33 39 38 37 33 29 29 27 28 29 31 34 35 38 39 40 46 49 50 53 54
24 20 22 24 28 38 48 50 45 40 36 34 27 20 9 9 16 32 21 30 20 31 32 36 40 40 38 33 36 38 40 46 42 38 40 44 46 48 51 54 55 54 57
25 26 27 30 36 43 46 43 41 37 33 27 26 24 21 23 20 18 24 30 37 27 32 33 31 35 34 40 42 49 55 46 38 38 41 42 45 49 52 55 61 59 58
31 33 31 32 37 43 43 38 34 29 25 24 25 28 30 35 34 31 34 23 27 34 36 30 29 34 36 41 48 53 60 56 40 45 45 41 47 53 58 62 67 69 65
38 35 31 29 38 37 49 35 30 28 28 30 36 30 27 27 27 29 35 36 38 41 38 35 32 41 46 46 49 55 51 54 52 50 53 59 61 64 71 71 69 71 68
38 27 27 29 39 47 33 30 29 29 30 32 29 26 25 27 30 32 38 40 43 38 36 34 39 44 46 51 54 47 51 55 61 69 76 76 79 83 73 63 58 56 58
32 28 35 48 28 28 29 29 28 26 26 28 30 31 35 32 33 35 38 41 39 44 47 39 42 46 49 59 66 64 68 71 73 75 76 73 64 53 54 53 53 53 55
30 38 35 26 22 26 30 27 23 20 24 29 34 39 40 34 32 38 39 41 46 42 50 49 47 54 59 67 68 64 63 63 64 63 60 53 46 49 50 50 50 50 52
44 33 28 21 22 24 30 30 27 23 27 33 39 36 37 32 29 34 37 38 42 46 53 57 57 59 66 62 59 58 57 55 53 49 50 52 46 46 49 50 50 52 52
24 18 21 19 21 28 33 32 27 26 32 35 39 36 32 29 33 39 40 39 43 44 50 59 65 64 61 61 60 55 53 52 50 51 52 49 49 48 49 49 53 52 54
28 22 18 20 25 31 36 29 26 28 34 37 35 37 36 34 36 36 39 42 45 42 49 62 62 62 61 59 58 56 51 46 45 49 54 59 60 58 52 47 51 53 56
31 25 18 16 23 35 33 31 30 31 35 39 35 37 37 36 43 41 43 45 47 50 50 53 60 62 63 59 60 57 52 53 53 56 48 39 41 48 52 53 54 53 53
32 26 17 14 32 30 35 32 34 36 38 41 36 39 40 42 41 43 46 47 49 48 47 51 58 60 60 59 58 59 67 65 64 42 31 39 45 45 47 50 50 49 52
32 21 11 27 32 37 36 37 40 37 39 42 38 40 43 42 43 46 47 48 47 46 47 51 54 58 58 57 57 61 59 55 46 37 45 43 45 45 42 35 42 45 45
27 11 21 43 41 44 40 38 38 38 38 42 39 43 42 45 44 46 47 47 43 43 47 49 54 55 55 53 55 52 52 48 56 45 58 57 48 44 37 37 35 39 39
22 18 49 35 45 47 41 40 40 37 40 41 42 43 45 44 45 46 48 43 41 42 45 51 52 48 50 46 51 52 41 46 50 55 51 56 44 44 42 35 32 38 36
30 48 32 39 45 48 46 42 40 38 41 42 44 45 46 44 42 45 42 40 40 43 44 46 42 40 39 45 43 43 43 50 57 56 44 56 52 54 47 31 21 17 16
57 32 38 46 51 49 45 38 33 35 39 42 43 45 46 44 39 42 41 40 42 41 43 36 33 34 34 34 40 45 46 49 59 58 46 45 61 62 55 33 16 22 25
27 39 47 46 49 48 41 37 33 37 41 43 45 47 45 41 40 40 40 39 42 38 34 31 30 30 30 34 41 37 38 43 48 57 43 58 61 57 44 37 18 33 31
Wind_Direction_850mb
178 186 191 205 215 237 241 252 270 288 301 306 308 297 297 301 304 292 293 301 305 301 296 304 313 311 298 293 302 307 313 314 317 323 316 313 312 305 305 307 309 305 299
208 213 222 227 241 251 263 272 278 288 300 311 310 310 308 307 303 294 290 298 306 313 302 290 275 277 312 308 315 318 316 317 321 326 315 316 314 311 307 310 314 312 301
225 232 243 238 237 244 265 277 294 304 306 305 308 307 309 309 295 294 297 300 298 297 277 259 259 277 293 318 344 344 345 3 336 328 330 318 318 319 316 310 309 309 306
233 230 217 213 220 252 286 305 300 305 309 317 323 328 332 322 306 307 317 321 325 277 233 227 250 273 279 294 311 310 312 326 328 328 319 315 318 318 316 314 311 307 302
203 203 203 221 245 299 309 301 311 318 323 325 328 334 334 311 308 306 310 313 322 264 209 229 251 278 300 314 313 308 309 310 315 297 291 306 308 311 313 313 316 322 310
198 205 219 239 300 310 316 318 322 322 322 326 329 329 323 313 298 295 302 308 305 291 275 274 273 286 292 291 296 313 310 305 305 300 314 316 316 312 308 307 318 319 319
212 221 243 288 318 325 325 320 317 316 317 321 323 320 325 290 275 295 293 304 308 304 300 301 300 300 299 302 303 301 311 309 299 297 298 304 311 309 311 310 311 311 311
221 236 269 296 313 315 314 313 312 315 316 317 320 325 304 271 270 259 291 300 301 298 309 309 310 310 307 304 310 311 307 306 299 292 291 298 303 304 306 306 306 305 306
230 249 266 281 298 307 312 313 313 314 314 315 316 315 308 261 269 280 256 287 265 286 291 297 302 306 309 312 313 311 308 306 299 291 291 293 296 299 301 301 301 302 303
243 262 274 288 301 308 310 308 310 310 308 310 313 309 300 287 294 287 283 269 281 281 292 293 289 297 303 310 313 318 317 309 285 288 292 293 294 297 299 300 299 300 298
249 254 268 290 305 314 308 304 304 306 307 308 307 300 294 296 295 283 289 288 267 294 299 299 294 298 300 302 303 310 314 310 294 283 278 289 293 295 297 297 296 296 294
247 258 273 297 312 312 303 305 310 310 308 307 309 305 302 300 297 289 288 291 290 293 292 291 296 302 296 303 309 314 307 301 294 289 288 290 293 295 295 294 294 293 292
245 257 287 300 290 294 295 300 304 303 307 314 316 315 312 305 299 297 288 288 289 287 287 292 297 299 299 310 312 304 295 290 287 288 291 292 291 292 293 293 293 291 290
243 264 287 305 292 294 302 303 304 301 306 311 312 316 315 305 298 299 292 290 286 291 294 298 302 303 307 307 305 302 296 292 291 290 290 293 295 296 294 291 290 286 284
246 286 296 294 293 311 314 308 308 299 311 320 310 312 311 301 293 302 297 287 290 295 297 304 307 307 305 306 308 307 305 302 300 299 298 297 294 289 291 288 284 284 282
271 275 285 281 301 313 321 309 301 305 314 321 319 305 307 304 286 293 295 294 293 295 300 307 308 310 311 312 313 312 309 307 305 302 299 301 298 285 282 282 281 281 281
250 260 269 287 311 324 329 314 308 305 319 323 321 313 314 310 302 298 296 296 296 297 295 299 305 310 312 314 315 314 311 308 306 303 304 300 296 295 290 283 280 283 288
252 250 274 301 320 319 318 312 310 310 307 315 318 315 306 302 301 286 288 292 297 291 296 302 308 313 314 316 317 317 316 311 312 308 306 302 295 289 286 282 278 280 286
247 246 266 290 312 303 308 303 307 315 302 304 311 304 292 295 300 300 300 299 297 301 303 305 309 313 315 319 321 322 321 316 315 318 316 312 312 303 282 271 273 279 286
239 242 255 285 301 297 296 297 298 304 302 293 298 301 291 299 303 303 301 301 303 303 304 305 308 311 316 321 322 324 322 322 320 325 327 326 328 321 310 279 274 281 284
231 234 258 306 290 288 288 291 291 293 289 284 286 297 292 294 300 304 303 304 302 301 304 308 309 312 316 321 323 323 322 325 327 331 337 331 331 326 324 299 275 280 283
195 212 292 296 283 289 286 285 281 284 281 277 282 299 291 291 297 301 301 303 298 300 305 307 311 312 316 321 321 321 322 325 326 330 329 330 335 323 325 318 300 285 279
216 267 295 280 282 291 287 287 287 282 274 270 287 292 289 287 296 300 300 297 294 297 302 306 309 313 314 321 318 317 323 320 313 319 325 322 340 334 331 326 315 292 276
316 287 281 282 290 288 288 286 285 282 264 275 284 288 283 288 296 301 294 289 290 295 300 303 305 313 314 323 321 314 308 303 303 310 326 316 334 336 336 329 327 345 285
283 272 282 291 290 290 289 284 279 272 274 280 281 285 283 288 295 301 290 288 290 298 302 301 305 313 314 316 324 308 304 307 309 314 323 324 324 327 330 327 279 331 313
269 286 290 290 293 293 287 277 275 273 275 280 285 283 282 282 290 297 289 285 290 303 301 302 302 306 311 320 326 318 306 302 306 312 317 322 321 323 314 320 271 309 312